TITAN 3C TRANSTAGE DEB, 5998

Orbit data source: Space-Track

TITAN 3C TRANSTAGE DEB, 5998 is space debris in HEO originally from a launch on Tue, 21 Dec 1965 UTC launched from the Air Force Eastern Test Range (AFETR). Debris objects in space refer to the collection of defunct objects orbiting the Earth. Examples of debris include non-operational satellites, rocket bodies, and fragments generated from explosions, collisions, or faulty payload assembly.

Loading next visibility...
Identifier
5998, 1965-108T
Orbit
HEO
Country
Flag of USUS
Related business
Manufacturer
Unknown
Mission
Spacecraft
Bus & Motor
Unknown
Mass
Unknown
Launch date (UTC)
1965-12-21 (60 years ago)
Launch vehicle
Unknown
Launch site
Air Force Eastern Test Range (AFETR)
Object type
Payload
Rocket body
Debris
Shape & HBR
Unknown shape, 0.2 m
Radar Cross Section
Medium (>0.1 m² and <1 m²)

Expand to show TLE details & history
Last TLE update: 2 months ago

TLE from 2 months ago
0 TITAN 3C TRANSTAGE DEB
1 05998U 65108T   25224.13886066 -.00001272  00000-0 -86028-2 0  9994
2 05998  26.2664 186.2121 6558350 211.4639 292.3038  3.03120359139352
Epoch: 2025-08-12T03:19Z
TLE epoch observation values (Epoch: 2025-08-12T03:19:57.561Z)
Latitude
24.70997°
Longitude
-115.99974°
Altitude
16,993.425 km
Speed
3.788 km/s
True Right ascension
16h 59m 18s
True Declination
24° 40' 13"
Sunlit
Object was in daylight at epoch
Visualization orbit readout
Latitude
Unknown
Longitude
Unknown
Altitude
Unknown
Speed
Unknown
Apparent Right ascension
Unknown
Apparent Declination
Unknown
Sunlit
N/A
Visualization observer readout
Local Sidereal Time
11:00:33
Azimuth
Unknown
Elevation
Unknown
Doppler factor
Unknown
Orbital elements
Apogee altitude
27,022.363 km
Perigee altitude
564.151 km
Semi-major axis
20,171.394 km
Eccentricity
0.65584
Inclination
26.2664°
RAAN
186.2121°
Arg. of periapsis
211.4639°
True anomaly
219.12309°
Mean anomaly
292.3038°
Eccentric anomaly
255.86494°
Mean motion
0.7576 °/min
Orbital period
475.19 mins
BSTAR
-0.0086028
Loading maneuver chart data...
Computing Atmospheric mass density...

Documentation

Showing up to 5 results
|